Miscellaneous Local Product
Issued by NWS North Platte, NE

Home | Current Version | Previous Version | Text Only | Print | Product List | Glossary On
Versions: 1 2 3 4 5 6 7 8 9 10 11 12 13 14 15 16 17 18 19 20 21 22 23 24 25 26 27 28 29 30 31 32 33 34 35 36 37 38 39 40 41 42 43 44 45 46 47 48 49 50
901
AXUS43 KLBF 241510
MISLBF


WESTERN AND NORTH CENTRAL NEBRASKA HOURLY WEATHER ROUNDUP
NATIONAL WEATHER SERVICE NORTH PLATTE NE
900 AM CST FRI FEB 24 2017

NOTE: "FAIR" INDICATES FEW OR NO CLOUDS BELOW 12,000 FEET WITH NO
SIGNIFICANT WEATHER AND/OR OBSTRUCTIONS TO VISIBILITY.

NOTE: STATIONS NOT REPORTING VARIABLES SUCH AS SKY/WEATHER OR
PRESSURE ARE PROVIDED BY RAWS AND APRS NETWORKS AND ARE NOT UNDER
NATIONAL WEATHER SERVICE QUALITY CONTROL.

...OBSERVATIONS IN AND NEAR THE EASTERN PANHANDLE OF NEBRASKA...

CITY           SKY/WX    TMP DP  RH WIND       PRES   REMARKS
PINE RIDGE     LGT SNOW  20  17  88 NE13      30.03S FOG     WCI   7
CHADRON        LGT SNOW  21  18  88 NE12      30.04R FOG     WCI   9
ALLIANCE       CLOUDY    19  16  88 N14       29.97R FOG     WCI   6
SIDNEY         LGT SNOW  19  16  88 N12       29.95R FOG     WCI   7
CRESCENT LAKE    N/A     19  17  90 NE12G20     N/A  WCI   7
$$

...OBSERVATIONS IN NORTHERN NEBRASKA AND FAR SOUTHERN SOUTH DAKOTA...

CITY           SKY/WX    TMP DP  RH WIND       PRES   REMARKS
WINNER         FAIR      21  13  71 N14       30.07R WCI   8
VALENTINE      CLOUDY    18  12  77 N18G25    30.04R WCI   2
THEDFORD       CLOUDY    20  17  88 N20G26    29.98R WCI   5
AINSWORTH      CLOUDY    18  15  87 N26       30.01S WCI   0
O`NEILL        CLOUDY    20  16  85 N24G33    29.96R WCI   3
ORD            HAZE      20  14  77 N24G35    29.92R VSB 1   WCI   3
BROKEN BOW     FOG       20  16  84 N32G40    29.94R VSB 1   WCI   1
VALENTINE NWR    N/A     16  14  90 N18G26      N/A  WCI   0
BUTTE            N/A     18  14  84 NW17G26     N/A  WCI   3
HALSEY           N/A     18  15  88 N12G26      N/A  WCI   6
CHAMBERS         N/A     21  13  72 N6          N/A  WCI  13
EWING            N/A     18  16  93 N20G29      N/A  WCI   2
$$

...OBSERVATIONS IN SOUTHWEST NEBRASKA AND FAR NORTHEAST COLORADO...

CITY           SKY/WX    TMP DP  RH WIND       PRES   REMARKS
HOLYOKE        CLOUDY    25  21  86 N10       29.96R WCI  15
IMPERIAL       LGT SNOW  23  18  81 N18       29.96R WCI   9
OGALLALA       CLOUDY    25  19  77 N21G28    29.97R WCI  10
NORTH PLATTE   LGT SNOW  24  18  77 N21G26    29.96R WCI   9
MCCOOK         LGT SNOW  25  22  88 N23       29.92R FOG     WCI  10
LEXINGTON      LGT SNOW  23  20  87 N22G31    29.92R VSB 1   WCI   8
STAPLETON        N/A     20  19  93 NW3G15      N/A
GOTHENBURG       N/A     22  18  85 N13         N/A  WCI  10
CALLAWAY         N/A     19  17  93 N20         N/A  WCI   3
$$

...OBSERVATIONS IN CENTRAL LINCOLN COUNTY AREA...

CITY           SKY/WX    TMP DP  RH WIND       PRES   REMARKS
N.P. AIRPORT   LGT SNOW  24  18  77 N21G26    29.96R WCI   9
N.P. DOWNTOWN    N/A     22  18  84 N13G24      N/A  WCI  10
N.P. SOUTHEAST   N/A     22  18  84 N8G20       N/A  WCI  13
N.P. HILLCREST   N/A     23  20  87 N21G28      N/A  WCI   8
$$

...SOME OBSERVATIONS FROM AROUND THE REGION...

CITY           SKY/WX    TMP DP  RH WIND       PRES   REMARKS
LARAMIE        CLOUDY     6   3  87 W3        29.80R
CHEYENNE       LGT SNOW  14  10  84 NE6       29.87R FOG     WCI   5
DENVER         LGT SNOW  18  13  80 NE7       29.92R WCI   9
AKRON          LGT SNOW  18  15  88 N12       29.92R FOG     WCI   5
SCOTTSBLUFF    CLOUDY    20  14  77 CALM      29.99R
RAPID CITY     CLOUDY    17  14  88 N7        30.07R WCI   8
BISMARCK       PTSUNNY   21  15  78 W7        30.15S WCI  12
PIERRE         CLOUDY    21  15  78 N12       30.11R WCI   9
SIOUX FALLS    CLOUDY    21  15  78 N17G24    29.92R WCI   7
OMAHA          FRZ RAIN  27  22  81 N25G35    29.75R WCI  12
GRAND ISLAND   FOG       20  19  96 N31G38    29.88R VSB 1/2 WCI   1
KANSAS CITY    DRIZZLE   37  35  92 W13       29.66R FOG     WCI  29
WICHITA        CLOUDY    35  25  66 NW22G30   29.82R WCI  23
OKLAHOMA CITY  MOSUNNY   39  26  59 N25G35    29.87R WCI  28
DALLAS         MOSUNNY   50  39  66 NW23      29.82R
AMARILLO       SUNNY     28  17  63 N23G32    29.95R WCI  14
DODGE CITY     PTSUNNY   30  19  63 NW20G32   29.89R WCI  17
HAYS           LGT SNOW  28  24  85 NW15      29.89R FOG     WCI  16
GOODLAND       CLOUDY    22  19  89 N17G26    29.92R WCI   8
$$




USA.gov is the U.S. government's official web portal to all federal, state and local government web resources and services.